FW5380 Weather Reports


Display with metric or nautical units.
time (UTC)temp
F
wind
direction
speed
MPH
gust
MPH
rain 1hr
in
rain 24hr
in
rain mn
in
humidity
%
barometer
mb
20260510084530 47 187 1.0 4.0 0.00 0.00 0.00 76 1019.5
20260510081529 48 189 0.0 1.0 0.00 0.00 0.00 75 1019.6
20260510080029 48 164 0.0 3.0 0.00 0.00 0.00 75 1019.7
20260510073030 50 180 0.0 3.0 0.00 0.00 0.00 75 1019.6
20260510071531 49 180 0.0 2.0 0.00 0.00 0.00 74 1019.6
20260510070029 49 180 0.0 3.0 0.00 0.00 0.00 72 1019.6
20260510064530 50 180 1.0 4.0 0.00 0.00 0.00 70 1019.6
20260510061529 52 180 2.0 4.0 0.00 0.00 0.00 68 1019.5
20260510060031 52 180 2.0 4.0 0.00 0.00 0.00 67 1019.5
20260510054532 53 194 1.0 4.0 0.00 0.00 0.00 65 1019.5
20260510051530 53 120 1.0 4.0 0.00 0.00 0.00 63 1019.4
20260510050030 54 163 1.0 4.0 0.00 0.00 0.00 63 1019.4
20260510044529 55 162 1.0 4.0 0.00 0.00 0.00 63 1019.4
20260510043033 55 178 3.0 4.0 0.00 0.00 0.00 63 1019.5
20260510041530 56 190 2.0 4.0 0.00 0.00 0.00 62 1019.3
20260510040105 57 180 1.0 4.0 0.00 0.00 0.00 60 1019.0
20260510034529 58 180 1.0 3.0 0.00 0.00 0.00 57 1019.0
20260510033032 59 134 1.0 3.0 0.00 0.00 0.00 53 1019.0
20260510030030 62 45 0.0 2.0 0.00 0.00 0.00 49 1018.8
20260510024532 64 177 1.0 3.0 0.00 0.00 0.00 47 1018.8
20260510023029 68 317 1.0 3.0 0.00 0.00 0.00 39 1018.7
20260510021529 72 21 1.0 6.0 0.00 0.00 0.00 33 1018.8
20260510020028 73 18 2.0 6.0 0.00 0.00 0.00 33 1018.8
20260510014635 75 20 2.0 6.0 0.00 0.00 0.00 34 1019.0
20260510013029 76 21 2.0 10.0 0.00 0.00 0.00 33 1019.0
20260510011607 76 24 3.0 8.0 0.00 0.00 0.00 32 1019.0
20260510010029 76 15 4.0 7.0 0.00 0.00 0.00 33 1019.1
20260510004531 76 9 3.0 8.0 0.00 0.00 0.00 31 1019.1
20260510003031 77 1 4.0 10.0 0.00 0.00 0.00 31 1019.1
20260510001536 76 7 4.0 10.0 0.00 0.00 0.00 31 1019.3
20260510000032 77 358 5.0 12.0 0.00 0.00 0.00 30 1019.4
20260509234530 77 4 4.0 10.0 0.00 0.00 0.00 32 1019.6
20260509233031 77 350 5.0 12.0 0.00 0.00 0.00 32 1019.8
20260509231531 77 348 4.0 10.0 0.00 0.00 0.00 33 1020.0
20260509230029 76 14 4.0 7.0 0.00 0.00 0.00 34 1020.3
20260509224530 76 13 3.0 9.0 0.00 0.00 0.00 35 1020.5
20260509223145 76 351 3.0 8.0 0.00 0.00 0.00 35 1020.7
20260509221531 75 3 3.0 8.0 0.00 0.00 0.00 36 1021.0
20260509220031 75 338 4.0 9.0 0.00 0.00 0.00 37 1021.1
20260509214528 75 4 3.0 7.0 0.00 0.00 0.00 38 1021.4
20260509213030 74 47 2.0 7.0 0.00 0.00 0.00 39 1021.6
20260509211531 73 353 3.0 8.0 0.00 0.00 0.00 40 1021.9
20260509210029 73 28 4.0 9.0 0.00 0.00 0.00 41 1022.0
20260509204645 72 20 4.0 10.0 0.00 0.00 0.00 42 1022.2
20260509203031 72 15 3.0 9.0 0.00 0.00 0.00 43 1022.3
20260509200029 70 65 2.0 7.0 0.00 0.00 0.00 46 1022.9
20260509194529 70 323 3.0 7.0 0.00 0.00 0.00 47 1023.0
20260509193032 69 24 4.0 8.0 0.00 0.00 0.00 47 1023.3
20260509191529 70 16 3.0 8.0 0.00 0.00 0.00 46 1023.4
20260509184536 70 3 3.0 7.0 0.00 0.00 0.00 49 1023.7
20260509183037 67 42 2.0 6.0 0.00 0.00 0.00 50 1023.8
20260509183027 66 37 2.0 8.0 0.00 0.00 0.00 52 1023.9
20260509174636 65 47 2.0 7.0 0.00 0.00 0.00 54 1024.0
20260509171529 64 12 2.0 7.0 0.00 0.00 0.00 55 1024.2
20260509170034 63 9 3.0 8.0 0.00 0.00 0.00 56 1024.3
20260509164531 62 5 1.0 5.0 0.00 0.00 0.00 57 1024.5
20260509163031 63 339 2.0 7.0 0.00 0.00 0.00 56 1024.6
20260509161540 63 345 1.0 4.0 0.00 0.00 0.00 56 1024.8
20260509160031 63 32 1.0 4.0 0.00 0.00 0.00 57 1024.8
20260509154530 63 58 1.0 3.0 0.00 0.00 0.00 62 1024.7
20260509153031 60 54 1.0 4.0 0.00 0.00 0.00 70 1024.7
20260509151530 55 46 0.0 4.0 0.00 0.00 0.00 79 1024.7
20260509150030 50 33 2.0 4.0 0.00 0.00 0.00 85 1024.8
20260509144542 48 167 0.0 3.0 0.00 0.00 0.00 86 1024.8
20260509143031 46 5 0.0 4.0 0.00 0.00 0.00 87 1024.7
20260509141532 44 192 1.0 4.0 0.00 0.00 0.00 88 1024.6
20260509134533 43 179 2.0 5.0 0.00 0.00 0.00 89 1024.6
20260509133029 44 261 0.0 4.0 0.00 0.00 0.00 89 1024.4
20260509131530 44 179 3.0 6.0 0.00 0.00 0.00 90 1024.1
20260509130027 44 169 3.0 5.0 0.00 0.00 0.00 90 1024.0
20260509124531 43 175 2.0 5.0 0.00 0.00 0.00 89 1023.9
20260509123030 43 177 2.0 5.0 0.00 0.00 0.00 88 1024.0
20260509121603 43 180 2.0 6.0 0.00 0.00 0.00 88 1024.1
20260509120106 43 172 3.0 5.0 0.00 0.00 0.00 87 1024.0
20260509114530 42 131 0.0 5.0 0.00 0.00 0.00 85 1024.0
20260509113030 43 112 0.0 0.0 0.00 0.00 0.00 84 1024.0
20260509111532 44 101 0.0 3.0 0.00 0.00 0.00 83 1024.0
20260509110030 45 212 1.0 5.0 0.00 0.00 0.00 83 1024.0
20260509104530 45 176 3.0 5.0 0.00 0.00 0.00 82 1023.9
20260509101605 46 176 4.0 8.0 0.00 0.00 0.00 80 1024.0
20260509100033 47 185 4.0 7.0 0.00 0.00 0.00 80 1024.0
20260509094530 47 214 4.0 6.0 0.00 0.00 0.00 81 1024.0
20260509093106 47 199 4.0 7.0 0.00 0.00 0.00 82 1024.0
20260509090028 48 176 3.0 5.0 0.00 0.00 0.00 80 1024.5